Home > Weather > Cheyenne > Past weeks

Flag for USA Past Weather in Cheyenne, Wyoming, USA — Yesterday and Last 2 Weeks

Now
75 °F

Sunny.


Feels Like: 78 °F
Forecast: 57 / 80 °F
Wind: 3 mph from North

Location: Cheyenne Airport

Current Time: Jul 24, 2016 at 10:48:32 AM

Latest Report: Jul 24, 2016 at 9:53 AM


Visibility: 10 mi

Pressure: 29.95 "Hg (24.19 "Hg at 1855m altitude)

Humidity: 45%

Dew Point: 52 °F

Location of CheyenneLocation

Past Weather in Cheyenne — Graph

°F

Cheyenne Temperature Yesterday

Maximum temperature yesterday: 93 °F (at 1:53 PM)
Minimum temperature yesterday: 65 °F (at 5:53 AM)
Average temperature yesterday: 78 °F

High & Low Weather Summary for the Past Weeks

 TemperatureHumidityPressure
High94 °F (Jul 10, 3:53 PM)93% (Jul 16, 12:53 AM)30.30 "Hg (Jul 16, 12:53 AM)
Low47 °F (Jul 12, 4:53 AM)7% (Jul 12, 3:53 PM)29.45 "Hg (Jul 10, 11:53 PM)
Average73 °F39%29.88 "Hg
* Reported Jul 9 8:53 AM — Jul 24 8:53 AM, Cheyenne, Weather by CustomWeather, © 2016

Note: Actual official high and low records may vary slightly from our data, if they occured in-between our weather recording intervals... More about our weather records

Advertising

Cheyenne Weather History for the Previous 24 Hours

Scroll right to see more
 ConditionsComfort  
Time TempWeatherWind HumidityBarometerVisibility
8:53 AM
Sun, Jul 24
73 °FSunny.7 mph48%29.93 "Hg10 mi
7:53 AM69 °FSunny.7 mph53%29.93 "Hg10 mi
6:53 AM66 °FSunny.9 mph52%29.92 "Hg10 mi
5:53 AM67 °FClear.13 mph47%29.89 "Hg10 mi
5:00 AM72 °FThundershowers. Passing clouds.15 mph34%30.21 "Hg10 mi
3:53 AM66 °FPassing clouds.7 mph52%29.87 "Hg10 mi
2:53 AM66 °FClear.10 mph54%29.90 "Hg10 mi
1:53 AM69 °FPassing clouds.12 mph49%29.93 "Hg10 mi
12:53 AM67 °FClear.8 mph51%29.93 "Hg10 mi
11:53 PM
Sat, Jul 23
69 °FPassing clouds.12 mph45%29.90 "Hg10 mi
10:53 PM70 °FClear.9 mph44%29.89 "Hg10 mi
9:53 PM74 °FClear.13 mph36%29.86 "Hg10 mi
8:53 PM79 °FThundershowers. Broken clouds.21 mph22%29.84 "Hg10 mi
7:53 PM74 °FPartly sunny.5 mph45%29.83 "Hg10 mi
6:53 PM76 °FScattered clouds.7 mph36%29.83 "Hg10 mi
5:53 PM78 °FThundershowers. Partly sunny.9 mph32%29.85 "Hg10 mi
4:53 PM92 °FSunny.13 mph14%29.80 "Hg10 mi
3:53 PM91 °FPassing clouds.13 mph16%29.79 "Hg10 mi
2:53 PM86 °FThunderstorms. Partly sunny.13 mph20%29.83 "Hg10 mi
1:53 PM93 °FSunny.13 mph14%29.80 "Hg10 mi
12:53 PM91 °FPassing clouds.9 mph15%29.82 "Hg10 mi
11:53 AM91 °FSunny.17 mph14%29.82 "Hg10 mi
10:53 AM88 °FSunny.13 mph16%29.83 "Hg10 mi
Weather by CustomWeather, © 2016

See weather overviewHow to use our weather pages